[[{"header":{"parameterUnit":"m.s-1","parameterCategory":1,"la1":30.2992,"la2":30.254,"lo1":-89.0895,"lo2":-89.0443,"dy":0.0025,"dx":0.0025,"nx":19,"ny":19,"refTime":"2026-05-09T03:00:00:Z","depth":0,"parameterNumber":2,"parameterNumberName":"U-component_of_WINDS"},"data":[0,0,0,1.3106,1.3111,1.336,1.3361,1.3661,1.3663,0,0,0,0,0,0,0,0,0,0,0,1.3023,1.3025,1.3106,1.3112,1.336,1.3361,1.366,1.3663,0,0,0,0,0,0,0,0,0,0,0,1.3022,1.3024,1.3026,1.3113,1.3359,1.3361,1.366,1.3479,0,0,0,0,0,0,0,0,0,0,1.3241,1.3154,1.3024,1.3026,1.3114,1.3359,1.3361,1.347,1.349,1.3541,0,1.3585,0,1.3629,1.3682,1.3683,0,0,0,1.3119,1.3138,1.3213,1.3027,1.3116,1.3359,1.325,1.3481,1.3504,1.3567,1.3589,1.3601,1.3634,1.3684,1.3686,1.3958,1.3959,0,0,1.3105,1.3062,1.3198,1.3227,1.3189,1.3242,1.3257,1.3495,1.3516,1.359,1.3608,1.3639,1.3686,1.3688,1.3958,1.3959,0,0,0,1.3061,1.3052,1.3123,1.3215,1.3261,1.3249,1.3267,1.3505,1.3532,1.3612,1.3642,1.3688,1.3691,1.3957,1.3958,1.3962,0,0,0,1.3053,1.3027,1.3116,1.3092,1.3256,1.3386,1.3271,1.3515,1.3544,1.3641,1.3688,1.3694,1.3956,1.3957,1.3959,1.397,0,0,0,1.301,1.3022,1.3054,1.309,1.3195,1.3383,1.3424,1.3523,1.3562,1.3684,1.3695,1.3955,1.3957,1.3957,1.3967,1.4028,0,0,0,1.2952,1.3054,1.3054,1.318,1.3192,1.3384,1.3423,1.3568,1.3673,1.3689,1.3956,1.3958,1.3957,1.3965,1.4026,1.4071,1.4087,0,0,1.3057,1.3065,1.3143,1.315,1.3331,1.335,1.3532,1.3668,1.3719,1.3875,1.3883,1.396,1.3967,1.4028,1.4189,1.4201,0,0,0,1.3162,1.3217,1.3275,1.3372,1.3479,1.3572,1.3685,1.3736,1.3871,1.3791,1.4001,1.4006,1.4044,1.4067,1.4077,1.4112,1.3967,1.3967,1.3967,1.3248,1.3308,1.3441,1.3531,1.3625,1.3741,1.3823,1.3911,1.3944,1.3992,1.4038,1.4129,1.4155,1.4163,1.4198,1.4069,1.4069,1.4069,1.4069,1.3407,1.3494,1.3536,1.368,1.3742,1.3863,1.3979,1.3998,1.4119,1.4099,1.4135,1.4107,1.4174,1.4208,1.407,1.4069,1.4069,1.4069,1.4069,1.3469,1.3521,1.3582,1.3729,1.3836,1.3923,1.4038,1.4091,1.4142,1.4178,1.4232,1.4232,1.4237,1.42,1.42,1.4201,1.4201,1.4201,1.4201,1.3509,1.3577,1.3667,1.3789,1.3859,1.3957,1.4075,1.4145,1.4235,1.4265,1.4266,1.4292,1.417,1.4137,1.4206,1.4206,1.4205,1.4204,1.4204,1.3645,1.3623,1.3762,1.3832,1.3979,1.4081,1.4148,1.4286,1.4351,1.4405,1.4426,1.4327,1.4339,1.4331,1.4304,1.4413,1.4413,1.4413,1.4413,1.3696,1.3708,1.3862,1.397,1.4082,1.4156,1.431,1.4403,1.4494,1.4538,1.4531,1.45,1.449,1.4508,1.4497,1.4472,1.4622,1.4622,1.4622,1.3783,1.3808,1.3929,1.4019,1.4139,1.424,1.4386,1.4507,1.4607,1.4631,1.4574,1.4565,1.4516,1.4497,1.4518,1.45,1.4456,0,0]},{"header":{"parameterUnit":"m.s-1","parameterCategory":1,"la1":30.2992,"la2":30.254,"lo1":-89.0895,"lo2":-89.0443,"dy":0.0025,"dx":0.0025,"nx":19,"ny":19,"refTime":"2026-05-09T03:00:00:Z","depth":0,"parameterNumber":3,"parameterNumberName":"V-component_of_WINDS"},"data":[0,0,0,4.3263,4.3261,4.3215,4.3215,4.3121,4.312,0,0,0,0,0,0,0,0,0,0,0,4.3262,4.3261,4.3263,4.3261,4.3215,4.3215,4.3121,4.312,0,0,0,0,0,0,0,0,0,0,0,4.3262,4.3261,4.326,4.3261,4.3215,4.3215,4.3122,4.3167,0,0,0,0,0,0,0,0,0,0,4.3218,4.3204,4.3261,4.326,4.3261,4.3215,4.3215,4.317,4.3165,4.313,0,4.31,0,4.3109,4.3112,4.3112,0,0,0,4.3271,4.3209,4.321,4.326,4.326,4.3215,4.3238,4.3167,4.3161,4.3122,4.3099,4.3096,4.3107,4.3112,4.3111,4.2888,4.2886,0,0,4.3273,4.3244,4.3215,4.3205,4.3217,4.324,4.3237,4.3164,4.3134,4.3099,4.3094,4.3106,4.3111,4.311,4.2889,4.2888,0,0,0,4.3274,4.3245,4.3249,4.3209,4.3203,4.3238,4.3235,4.3138,4.3142,4.3094,4.3105,4.311,4.3109,4.2891,4.2889,4.2784,0,0,0,4.3276,4.3246,4.325,4.3231,4.3204,4.3171,4.3209,4.3147,4.314,4.3105,4.311,4.3107,4.2893,4.289,4.279,4.2736,0,0,0,4.327,4.3246,4.3235,4.323,4.321,4.3173,4.3173,4.3146,4.3145,4.3112,4.3107,4.2894,4.289,4.2796,4.2746,4.2663,0,0,0,4.3253,4.3143,4.3232,4.3113,4.321,4.3112,4.3174,4.3102,4.3061,4.3109,4.2893,4.2889,4.2798,4.2752,4.267,4.2584,4.2548,0,0,4.3097,4.3123,4.3055,4.3134,4.3013,4.3121,4.2983,4.2972,4.2994,4.292,4.2915,4.2788,4.2746,4.2665,4.237,4.234,0,0,0,4.2995,4.2945,4.2919,4.2881,4.2873,4.2858,4.2873,4.2868,4.2808,4.2953,4.2741,4.2717,4.267,4.263,4.2605,4.2563,4.2872,4.2872,4.2873,4.2726,4.2764,4.2652,4.2682,4.2644,4.266,4.263,4.2625,4.2674,4.2623,4.2598,4.2415,4.2368,4.2349,4.2305,4.2563,4.2563,4.2562,4.2562,4.2494,4.2425,4.2495,4.241,4.2448,4.2375,4.2385,4.2421,4.2354,4.2438,4.2398,4.2478,4.2317,4.2279,4.2555,4.2556,4.2557,4.2558,4.2558,4.2315,4.2288,4.2289,4.2235,4.2188,4.2224,4.2157,4.2196,4.2231,4.2192,4.2165,4.2167,4.2166,4.2179,4.2178,4.2178,4.2177,4.2177,4.2176,4.2125,4.213,4.207,4.2053,4.2031,4.2008,4.2023,4.2001,4.1985,4.2018,4.2018,4.2064,4.2298,4.2351,4.2166,4.2168,4.2169,4.217,4.2171,4.1861,4.1927,4.1836,4.1814,4.1794,4.1742,4.1796,4.1747,4.1735,4.1698,4.1756,4.1926,4.1953,4.1972,4.2015,4.1755,4.1755,4.1755,4.1755,4.1702,4.1724,4.1636,4.1599,4.1567,4.1606,4.1492,4.1502,4.1522,4.1515,4.156,4.1624,4.1643,4.1658,4.1685,4.1725,4.1396,4.1396,4.1395,4.1538,4.1558,4.1455,4.1481,4.1469,4.1454,4.1347,4.1295,4.1332,4.1381,4.1508,4.1523,4.1627,4.166,4.1703,4.1744,4.1819,0,0]}]]